Other Surface Observations
Issued by NWS

Home | Current Version | Previous Version | Text Only | Print | Product List | Glossary On
Versions: 1 2 3 4 5 6 7 8 9 10 11 12 13 14 15 16 17 18 19 20 21 22 23 24 25 26 27 28 29 30 31 32 33 34 35 36 37 38 39 40 41 42 43 44 45 46 47 48 49 50
000
SXUS52 KTAE 221218
OSOTAE
OSOTAE
North Florida/South Alabama/Southwest Georgia Weather Roundup
National Weather Service Tallahassee Florida
700 AM EST MON DEC 22 2014

Note: "fair" indicates few or no clouds below 12,000 feet with no
significant weather and/or obstructions to visibility.

!FLZ017-115-028-034-025-221300
...North Florida...

CITY           SKY/WX    TMP DP  RH WIND       PRES   REMARKS
TALLAHASSEE    FOG       57  54  89 NE3       29.97R VSB 1/2
APALACHICOLA   FOG       63  60  90 NE7       29.93R VSB 1/4
PERRY          CLOUDY    65  64  99 CALM      29.97R
CROSS CITY       N/A     66  65  96 VRB6      29.96R
JACKSONVILLE   RAIN      63  63 100 S8        30.00R FOG
$$

!FLZ112-006-005-002-011-221300
...Florida Panhandle...

CITY           SKY/WX    TMP DP  RH WIND       PRES   REMARKS
MARIANNA       LGT RAIN  52  52 100 NE6       29.98R
BONIFAY        NOT AVBL
PANAMA CITY NW LGT RAIN  55  54  96 N3        29.95R
TYNDALL AFB    FOG       57  57 100 NE6       29.94S VSB 1/2
TYND DRONE APT NOT AVBL
DE FUNIAK SPR  RAIN      53  53 100 NE7       29.95F
EGLIN AFB      LGT RAIN  55  53  94 E8        29.93S FOG
DESTIN         RAIN      56  55  97 E8        29.94S
HURLBURT       LGT RAIN  55  52  87 E10       29.91S
CRESTVIEW      LGT RAIN  54  54 100 N7        29.94R
PENSACOLA      CLOUDY    53  53 100 E7        29.91R
$$

!ALZ063-066-221300
...South Alabama...

CITY           SKY/WX    TMP DP  RH WIND       PRES   REMARKS
DOTHAN         CLOUDY    50  50 100 NE6       30.01R FOG
OZARK CAIRNS   DRZL/FOG  52  50  93 E7        29.97S VSB 1
FT RUCKER HELI FOG       51  50  96 VRB3      29.96R VSB 3/4
RUCKER HELI 3  FOG       50  50 100 E5        29.99R VSB 1/4
RUCKER HELI 2  FOG       50  50 100 E8        29.96F VSB 1/2
FLORALA APT    CLOUDY    54  52  94 NE5       29.96F FOG
ANDALUSIA      CLOUDY    55  52  88 E3        29.96R FOG
TROY           CLOUDY    50  49  96 NE6       29.98R FOG
EUFALA         CLOUDY    49  48  97 E7        29.98F FOG
MOBILE         CLOUDY    54  54 100 E7        29.90R FOG
$$

!GAZ120>161-221300
...Southwest and South Central Georgia...

CITY           SKY/WX    TMP DP  RH WIND       PRES   REMARKS
THOMASVILLE    LGT RAIN  52  52 100 NE6       29.99S VSB 1
BAINBRIDGE     HVY RAIN  54  52  94 E7        29.98S
MOODY AFB      LGT RAIN  50  50 100 NE6       29.99S VSB 3/4
VALDOSTA       FOG       52  52 100 N5        30.00R VSB 1/2
MOULTRIE       RAIN      50  50 100 NE3       30.00R
BLAKELY        CLOUDY    50  50 100 NE3       29.99R FOG
ALBANY         LGT RAIN  48  47  96 NE7       30.02S WCI  45
TIFTON         FOG       48  48 100 NE3       30.00R VSB 1
FITZGERALD     FOG       49  46  92 NE5       30.03S VSB 1/2
CORDELE        RAIN      49  48  95 E5        30.02S
AMERICUS       DRIZZLE   46  46 100 NE6       30.03S WCI  43
HOMERVILLE     FOG       52  52 100 N3        30.01R VSB 3/4
$$

!GMZ750-755-770-775-221300
...Coastal and Buoy Obs...

STATION/POSITION TIME  TEMP    WIND        PRES    VSBY  WAVE
                       AIR SEA DIR/SP/G                  HT/PER
                 (UTC) (F)     (DEG/KT/KT) (MB)    (MI)  (FT/S)
KEATON BEACH     1200   65     100/  5/  5 1014.3R
CEDAR KEY        1200   63     120/  9/ 10 1015.3R
C TOWER          1200   66     130/ 12/ 13 1013.2R
APALACHICOLA BUO 1200   72 73  140/ 14/ 16 1013.0R         3/ 5
PANAMA CITY BUOY 1054   74 74  150/ 10/ 12 1012.4R         3/ 5
MOBILE BUOY      1200   72 74  140/ 12/ 14 1010.9F         3/ 4
ORANGE BCH AL BU 1200   67 71  120/ 21/ 25 1010.4F         3/ 4
$$



USA.gov is the U.S. government's official web portal to all federal, state and local government web resources and services.